[[{"header":{"parameterUnit":"m.s-1","parameterCategory":1,"la1":30.2991,"la2":30.254,"lo1":-89.0895,"lo2":-89.0444,"dy":0.0017,"dx":0.0017,"nx":28,"ny":28,"refTime":"2023-11-07T03:00:00:Z","depth":0,"parameterNumber":2,"parameterNumberName":"U-component_of_WINDS"},"data":[0,0,0,0,0,0,0,0,0,0,0,0,0,0,0,0,0,0,0,0,0,0,0,0,0,0,0,0,0,0,0,0,0,0,0,0,0,0,0,0,0,0,0,0,0,0,0,0,0,0,0,0,0,0,0,0,0,0,1.4122,1.4123,0,1.4157,1.4157,1.4158,1.4163,1.4163,1.4162,1.4162,1.4197,1.4199,1.42,0,0,0,0,0,0,0,0,0,0,0,0,0,1.4061,1.4062,1.4122,1.4123,1.4123,1.4157,1.4157,1.4158,1.4163,1.4163,1.4162,1.4162,1.4197,1.4199,1.42,0,0,0,0,0,0,0,0,0,0,0,0,0,1.4091,1.4062,1.4122,1.413,1.4131,1.4157,1.4157,1.4158,1.4163,1.4163,1.4162,1.4162,1.4197,1.4198,1.42,1.4221,0,0,1.4206,1.4207,0,0,0,0,0,0,0,0,1.4089,1.4093,1.4128,1.4129,1.4131,1.4155,1.4149,1.4179,1.4163,1.4151,1.4162,1.4161,1.4184,1.4187,1.4194,1.4223,1.4224,1.4206,1.4207,1.4208,1.4208,0,0,0,0,0,0,0,1.4087,1.4091,1.4136,1.4129,1.413,1.4132,1.4135,1.4155,1.4169,1.4152,1.4152,1.4156,1.4184,1.4192,1.4195,1.4225,1.4206,1.4208,1.4209,1.421,1.4273,1.4274,0,0,0,0,0,0,1.4083,1.409,1.4135,1.4137,1.4108,1.4133,1.4137,1.4148,1.4169,1.4172,1.4157,1.4156,1.4189,1.4193,1.4196,1.4223,1.4208,1.421,1.4211,1.4273,1.4273,1.4274,0,0,0,0,0,0,1.4082,1.4087,1.4134,1.4114,1.412,1.4135,1.4146,1.4149,1.4157,1.4173,1.4176,1.4162,1.4189,1.4194,1.4215,1.4224,1.4211,1.4212,1.4272,1.4273,1.4274,1.4275,0,0,0,0,0,0,1.408,1.4087,1.4095,1.4114,1.4121,1.4152,1.4147,1.415,1.416,1.416,1.4179,1.4182,1.4189,1.4212,1.4217,1.4226,1.4214,1.4271,1.4272,1.4273,1.4274,1.4276,1.4277,0,0,0,0,0,1.4078,1.4094,1.4095,1.4101,1.4131,1.4152,1.4156,1.4164,1.4161,1.4169,1.4179,1.4181,1.4222,1.4214,1.422,1.423,1.4271,1.4272,1.4273,1.4274,1.4276,1.4277,0,0,0,0,0,0,1.4075,1.4096,1.4098,1.412,1.4134,1.4153,1.4163,1.4166,1.4181,1.4181,1.4191,1.4195,1.4216,1.4225,1.4216,1.4251,1.4246,1.4249,1.4245,1.4247,1.4248,1.4246,1.4215,0,0,0,0,0,1.4077,1.4093,1.411,1.4128,1.4135,1.4148,1.4158,1.4163,1.4178,1.4184,1.4196,1.421,1.4227,1.4237,1.4253,1.4276,1.428,1.4285,1.4287,1.4288,1.429,1.4303,1.4306,1.4278,1.4278,1.4278,0,0,1.4081,1.4095,1.4104,1.4128,1.4139,1.4155,1.4153,1.417,1.4182,1.4186,1.4207,1.4217,1.4234,1.4256,1.4266,1.4264,1.4299,1.429,1.429,1.4292,1.4305,1.4307,1.431,1.4279,1.4279,1.4279,0,0,1.4097,1.4108,1.4125,1.4137,1.4155,1.4163,1.4167,1.4186,1.4192,1.4213,1.4217,1.4232,1.426,1.4272,1.4281,1.4303,1.4305,1.4308,1.4315,1.4328,1.433,1.4332,1.434,1.4343,1.431,1.431,1.431,0,1.4099,1.4124,1.4133,1.415,1.4161,1.4166,1.4183,1.4194,1.4216,1.4223,1.422,1.4256,1.4268,1.4293,1.4298,1.4306,1.4311,1.4305,1.4329,1.4331,1.4333,1.4341,1.4344,1.431,1.431,1.431,1.431,0,1.4127,1.4144,1.4155,1.4176,1.4188,1.4205,1.4217,1.4228,1.4233,1.4242,1.4264,1.4278,1.4297,1.4304,1.4308,1.433,1.4328,1.4327,1.4322,1.4336,1.4343,1.4346,1.431,1.431,1.431,1.431,0,0,1.4141,1.4168,1.4172,1.4182,1.4202,1.4216,1.4233,1.4252,1.4261,1.4277,1.4292,1.4315,1.4315,1.4326,1.4332,1.4343,1.436,1.4341,1.4341,1.4344,1.4385,1.4386,1.4389,1.4361,1.4362,1.4362,1.4384,0,1.4159,1.419,1.42,1.4226,1.4242,1.4248,1.4263,1.4277,1.4286,1.4301,1.4311,1.4328,1.4326,1.4333,1.4344,1.4355,1.4368,1.4354,1.4375,1.4376,1.4371,1.4393,1.4393,1.4413,1.4387,1.4387,1.4387,0,1.4184,1.42,1.4229,1.4248,1.4255,1.4268,1.4287,1.4301,1.4318,1.4323,1.4336,1.4341,1.436,1.4354,1.438,1.437,1.438,1.4386,1.4387,1.439,1.4383,1.4396,1.4419,1.4422,1.4392,1.4392,1.4391,0,1.4192,1.4221,1.4242,1.425,1.4273,1.4282,1.4292,1.4308,1.4319,1.4336,1.4343,1.4361,1.4371,1.4385,1.4395,1.439,1.442,1.4415,1.4426,1.4426,1.4432,1.4431,1.4457,1.4438,1.4438,1.4438,1.4438,0,1.4211,1.4228,1.4246,1.4258,1.4278,1.4289,1.4307,1.4318,1.4332,1.4347,1.4353,1.4367,1.4379,1.4395,1.4403,1.4423,1.4428,1.4433,1.4435,1.4433,1.4432,1.4439,1.4438,1.4439,1.4438,1.4438,1.4438,0,1.4223,1.4235,1.4258,1.4279,1.4284,1.4298,1.4315,1.4327,1.4337,1.4356,1.4361,1.4376,1.4395,1.4406,1.443,1.4435,1.4458,1.4459,1.4452,1.4453,1.4464,1.4463,1.4495,1.45,1.4477,1.4477,1.4478,0,1.4235,1.4248,1.427,1.4281,1.4291,1.4308,1.4319,1.4331,1.4342,1.4363,1.4373,1.4392,1.4408,1.4438,1.4451,1.4469,1.4471,1.4481,1.4474,1.4471,1.4472,1.4471,1.4472,1.4482,1.4483,1.4483,1.4483,0,1.4254,1.426,1.4276,1.4295,1.4309,1.4325,1.434,1.4348,1.4362,1.4375,1.4395,1.4407,1.4432,1.4451,1.447,1.448,1.4484,1.4485,1.4489,1.4486,1.4482,1.4485,1.4456,1.4484,1.4484,1.4484,1.4484,1.4484,1.4266,1.4279,1.4296,1.4315,1.4328,1.4342,1.4355,1.4367,1.4384,1.4405,1.441,1.4431,1.4448,1.4474,1.4485,1.4501,1.45,1.4505,1.4506,1.4507,1.4507,1.4479,1.4505,1.4505,1.4505,1.4505,1.4505,0,1.4286,1.4298,1.4315,1.4337,1.4351,1.4354,1.4372,1.4384,1.4402,1.4417,1.4433,1.4456,1.4474,1.4489,1.4508,1.4519,1.4521,1.4523,1.4523,1.4525,1.4507,1.4503,1.4521,1.4521,1.4521,1.4521,1.4521,1.4521,1.4298,1.432,1.4327,1.4356,1.4367,1.4388,1.4397,1.4411,1.4423,1.4449,1.4464,1.4474,1.4489,1.451,1.4527,1.4531,1.4538,1.454,1.4544,1.4528,1.4526,1.4524,1.452,1.4542,1.4542,1.4561,1.4561,1.4561]},{"header":{"parameterUnit":"m.s-1","parameterCategory":1,"la1":30.2991,"la2":30.254,"lo1":-89.0895,"lo2":-89.0444,"dy":0.0017,"dx":0.0017,"nx":28,"ny":28,"refTime":"2023-11-07T03:00:00:Z","depth":0,"parameterNumber":3,"parameterNumberName":"V-component_of_WINDS"},"data":[0,0,0,0,0,0,0,0,0,0,0,0,0,0,0,0,0,0,0,0,0,0,0,0,0,0,0,0,0,0,0,0,0,0,0,0,0,0,0,0,0,0,0,0,0,0,0,0,0,0,0,0,0,0,0,0,0,0,3.2176,3.2175,0,3.2112,3.2111,3.211,3.2117,3.2118,3.2119,3.212,3.2045,3.2042,3.2039,0,0,0,0,0,0,0,0,0,0,0,0,0,3.2295,3.2293,3.2176,3.2175,3.2174,3.2112,3.2111,3.211,3.2117,3.2118,3.2119,3.212,3.2046,3.2043,3.2039,0,0,0,0,0,0,0,0,0,0,0,0,0,3.2238,3.2292,3.2176,3.217,3.2169,3.2112,3.2111,3.211,3.2117,3.2118,3.212,3.2121,3.2047,3.2043,3.2039,3.198,0,0,3.2025,3.2023,0,0,0,0,0,0,0,0,3.2242,3.2234,3.2172,3.2171,3.2169,3.2124,3.2126,3.2066,3.2116,3.2136,3.212,3.2122,3.207,3.2063,3.2048,3.1977,3.1974,3.2025,3.2022,3.202,3.2019,0,0,0,0,0,0,0,3.2245,3.2237,3.215,3.2171,3.2169,3.2168,3.2162,3.2114,3.2095,3.2135,3.2135,3.2128,3.2069,3.2052,3.2046,3.1972,3.2025,3.2021,3.2018,3.2016,3.1849,3.1847,0,0,0,0,0,0,3.2252,3.224,3.2152,3.2149,3.221,3.2165,3.2158,3.2137,3.2095,3.2091,3.2127,3.2128,3.2059,3.2051,3.2043,3.1972,3.202,3.2016,3.2013,3.1851,3.1849,3.1847,0,0,0,0,0,0,3.2255,3.2244,3.2155,3.2194,3.2183,3.2161,3.2138,3.2135,3.2118,3.2089,3.2085,3.2113,3.206,3.205,3.1996,3.1969,3.2014,3.201,3.1853,3.185,3.1848,3.1828,0,0,0,0,0,0,3.2258,3.2245,3.2225,3.2194,3.2181,3.2112,3.2136,3.2133,3.2111,3.2113,3.2076,3.2071,3.206,3.2003,3.1992,3.1964,3.2006,3.1855,3.1852,3.1849,3.1831,3.1825,3.182,0,0,0,0,0,3.2262,3.222,3.2224,3.2213,3.2156,3.211,3.2102,3.2093,3.2109,3.2087,3.2069,3.2072,3.1974,3.1997,3.1985,3.1955,3.1857,3.1853,3.1849,3.1834,3.1827,3.182,0,0,0,0,0,0,3.2245,3.2216,3.222,3.2167,3.2141,3.2112,3.2084,3.2086,3.2053,3.2056,3.2043,3.2035,3.1981,3.1963,3.1989,3.1896,3.1917,3.1911,3.191,3.1903,3.1898,3.1902,3.2003,0,0,0,0,0,3.2236,3.2204,3.2179,3.2135,3.2122,3.2105,3.2085,3.2081,3.2052,3.2041,3.2018,3.1988,3.1951,3.1926,3.189,3.1829,3.182,3.1802,3.1797,3.1793,3.1786,3.1752,3.1743,3.1834,3.1834,3.1834,0,0,3.2215,3.2195,3.2175,3.2131,3.2111,3.2076,3.2096,3.2058,3.2031,3.2034,3.1983,3.1965,3.1931,3.1874,3.1847,3.1857,3.176,3.1787,3.1784,3.178,3.1747,3.1738,3.173,3.1831,3.1831,3.1832,0,0,3.2159,3.2142,3.2103,3.2083,3.2053,3.2042,3.2032,3.2002,3.1992,3.1941,3.1943,3.1909,3.1845,3.182,3.1799,3.1734,3.1735,3.1722,3.1693,3.1659,3.1652,3.1646,3.1621,3.1613,3.1716,3.1716,3.1716,0,3.2135,3.2086,3.2081,3.2044,3.2023,3.2028,3.1987,3.1966,3.1925,3.1909,3.1921,3.1841,3.1818,3.1755,3.1739,3.1722,3.1709,3.1726,3.1654,3.1647,3.1641,3.1618,3.1609,3.1715,3.1715,3.1715,3.1715,0,3.2058,3.2024,3.1995,3.1959,3.1935,3.1896,3.1882,3.1858,3.1856,3.1843,3.179,3.1763,3.1721,3.1706,3.1702,3.1641,3.1648,3.1657,3.1678,3.1631,3.1609,3.16,3.1713,3.1713,3.1714,3.1714,0,0,3.1988,3.1951,3.1941,3.1924,3.1892,3.1863,3.1823,3.1786,3.1764,3.1735,3.17,3.1646,3.1655,3.163,3.1624,3.1594,3.1543,3.1607,3.1606,3.1595,3.1473,3.1466,3.1456,3.1545,3.1543,3.1542,3.1476,0,3.1928,3.1861,3.1856,3.1794,3.1761,3.1765,3.1729,3.1704,3.1691,3.1658,3.1642,3.1604,3.1619,3.1604,3.1575,3.1556,3.1518,3.1561,3.1508,3.1507,3.1516,3.1444,3.1436,3.1375,3.1467,3.1465,3.1464,0,3.1849,3.1821,3.1757,3.173,3.1716,3.1684,3.1649,3.1619,3.159,3.1582,3.1556,3.1553,3.1509,3.1533,3.147,3.1499,3.1477,3.1464,3.1461,3.1455,3.1482,3.1434,3.1356,3.1346,3.1451,3.1452,3.1453,0,3.1803,3.1749,3.1704,3.169,3.1657,3.1635,3.1619,3.1592,3.157,3.1538,3.1523,3.1485,3.1464,3.1433,3.1419,3.1438,3.1357,3.1379,3.1346,3.1347,3.1328,3.1329,3.1244,3.1316,3.1316,3.1316,3.1317,0,3.1736,3.1696,3.1683,3.1655,3.161,3.1603,3.1557,3.1542,3.1518,3.1485,3.1485,3.1453,3.1438,3.1402,3.1391,3.134,3.133,3.1321,3.1318,3.132,3.1321,3.1305,3.1308,3.1314,3.1314,3.1315,3.1315,0,3.1676,3.1667,3.1617,3.1591,3.1584,3.1551,3.1527,3.1498,3.1486,3.1444,3.1434,3.1413,3.1372,3.1356,3.1304,3.1296,3.1237,3.1238,3.1248,3.1247,3.1215,3.1217,3.1114,3.11,3.1183,3.1182,3.1182,0,3.1634,3.1604,3.1575,3.1555,3.154,3.1506,3.1484,3.1476,3.1452,3.1417,3.1392,3.1352,3.1319,3.1252,3.1231,3.1191,3.119,3.1157,3.1184,3.1187,3.1188,3.119,3.1186,3.1151,3.115,3.115,3.1149,0,3.1558,3.1555,3.1526,3.1494,3.1469,3.1442,3.1417,3.1399,3.1386,3.1359,3.1319,3.1294,3.1243,3.1202,3.1162,3.1142,3.1142,3.1141,3.1131,3.1133,3.1139,3.1134,3.1233,3.1143,3.1144,3.1144,3.1145,3.1145,3.1505,3.1478,3.1455,3.1421,3.1402,3.1378,3.135,3.1335,3.1303,3.1263,3.1259,3.1215,3.1185,3.1132,3.1111,3.1074,3.1083,3.1068,3.1064,3.1061,3.1058,3.1147,3.1067,3.1067,3.1067,3.1067,3.1067,0,3.1429,3.1414,3.1384,3.135,3.1323,3.133,3.1301,3.1277,3.124,3.1214,3.1183,3.1136,3.1096,3.1072,3.1032,3.1007,3.1006,3.0996,3.0997,3.0993,3.1054,3.1066,3.0998,3.0998,3.0998,3.0998,3.0998,3.0998,3.1386,3.1341,3.1335,3.128,3.1265,3.1225,3.1208,3.1185,3.1165,3.1113,3.1082,3.1068,3.1042,3.0999,3.0963,3.0956,3.0941,3.093,3.0924,3.0981,3.0988,3.0995,3.1007,3.0927,3.0927,3.0866,3.0866,3.0865]}]]